(137314) = 1999 TQ14

Discovered at Ondrejov on 1999-10-12 by P. Kusnirak.

Orbit

Orbit type: Main Belt

Note: WebGL enabled browser required.

epoch2024-03-31.0
epoch JD2460400.5
perihelion date2022-08-05.93304
perihelion JD2459797.43304
argument of perihelion (°)353.74418
ascending node (°)14.75515
inclination (°)1.25332
eccentricity0.1205275
perihelion distance (AU)1.9375812
Tisserand w.r.t. Jupiter3.7
ΔV w.r.t. Earth (km/sec)8.6
semimajor axis (AU)2.2031176
mean anomaly (°)181.76609
mean daily motion (°/day)0.30140280
aphelion distance (AU)2.469
period (years)3.27
P-vector [x]0.98901096
P-vector [y]0.13657303
P-vector [z]0.05661385
Q-vector [x]-0.14773722
Q-vector [y]0.89854620
Q-vector [z]0.41326559
absolute magnitude17.52
phase slope0.15
uncertainty0
referenceMPEC 2024-F14
observations used427
oppositions17
arc length (days)11029
first opposition used1994
last opposition used2024
residual rms (arc-secs)0.74
perturbers coarse indicatorM-v
perturbers precise indicator003Ek
first observation date used1994-01-05.0
last observation date used2024-03-17.0
computer nameMPCLINUX
JD of orbit computation2456819.487227
perihelion JD uncertainty (days)5.2789E-05
argument of perihelion uncertainty (°)1.5989E-04
ascending node uncertainty (°)1.5918E-04
inclination uncertainty (°)5.4869E-06
eccentricity uncertainty 5.4439E-08
perihelion distance uncertainty (AU)1.2108E-07
Minimum Orbit Intersection Distances (in AU)
for orbit epoch: 2460400.5, reference: E2024-F14
Mercury1.57671
Venus1.21315
Earth0.93647
Mars0.51722
Jupiter2.97534
Saturn6.82454
Uranus15.9893
Neptune27.8415

Observations

447 total observations over interval: 1994 01 05.22290 – 2024 03 17.520649
These data are available for download (format description).

Date (UT) J2000 RA J2000 Dec Magn Location Ref
1994 01 05.22290 08 26 42.26 +21 23 04.8 20.3 V 691 – Steward Observatory, Kitt Peak-Spacewatch MPS 79600
1994 01 05.26862 08 26 39.41 +21 23 14.8 20.2 V 691 – Steward Observatory, Kitt Peak-Spacewatch MPS 79600
1994 01 05.31494 08 26 36.34 +21 23 26.3 20.4 V 691 – Steward Observatory, Kitt Peak-Spacewatch MPS 79600
1994 01 19.31612 08 10 42.77 +22 15 10.6 19.9 V 691 – Steward Observatory, Kitt Peak-Spacewatch MPS 79600
1994 01 19.34745 08 10 40.45 +22 15 16.7 20.3 V 691 – Steward Observatory, Kitt Peak-Spacewatch MPS 79600
1994 01 19.37860 08 10 38.12 +22 15 22.5 21.0 V 691 – Steward Observatory, Kitt Peak-Spacewatch MPS 79600
1999 10 04.92334 01 19 18.94 +08 25 35.8   557 – Ondrejov MPS 6924
1999 10 04.92531 01 19 18.81 +08 25 35.4   557 – Ondrejov MPS 6924
1999 10 04.92927 01 19 18.67 +08 25 33.9   557 – Ondrejov MPS 6924
1999 10 09.28504 01 15 09.58 +08 05 36.6 19.1   704 – Lincoln Laboratory ETS, New Mexico MPS 15246
1999 10 09.29836 01 15 08.84 +08 05 33.1 19.8   704 – Lincoln Laboratory ETS, New Mexico MPS 15246
1999 10 09.31138 01 15 07.95 +08 05 29.3 19.7   704 – Lincoln Laboratory ETS, New Mexico MPS 15246
1999 10 09.32473 01 15 07.18 +08 05 24.6 19.6   704 – Lincoln Laboratory ETS, New Mexico MPS 15246
1999 10 09.33820 01 15 06.31 +08 05 21.9 19.9   704 – Lincoln Laboratory ETS, New Mexico MPS 15246
1999 10 12.82292 01 11 42.83 +07 48 40.0   557 – Ondrejov MPS 6924
1999 10 12.84546 01 11 41.43 +07 48 33.5 18.5 V 557 – Ondrejov MPS 6924
1999 10 15.84861 01 08 46.19 +07 34 07.1 19.1 V 557 – Ondrejov MPS 6924
1999 10 15.88458 01 08 44.02 +07 33 56.6   557 – Ondrejov MPS 6924
1999 10 16.84936 01 07 48.44 +07 29 20.2   557 – Ondrejov MPS 6924
1999 10 16.87707 01 07 46.79 +07 29 11.8 18.7 V 557 – Ondrejov MPS 6924
1999 10 17.87330 01 06 49.74 +07 24 28.6   557 – Ondrejov MPS 6924
1999 10 17.87561 01 06 49.68 +07 24 28.1   557 – Ondrejov MPS 6924
1999 10 17.87795 01 06 49.55 +07 24 27.6 18.9 V 557 – Ondrejov MPS 6924
1999 10 19.01597 01 05 44.84 +07 19 06.4 19.2 V 557 – Ondrejov MPS 6924
1999 10 19.02103 01 05 44.56 +07 19 04.8   557 – Ondrejov MPS 6924
1999 10 19.06753 01 05 41.84 +07 18 51.4   557 – Ondrejov MPS 6924
1999 10 19.20672 01 05 34.57 +07 18 15.0 19.5   704 – Lincoln Laboratory ETS, New Mexico MPS 15246
1999 10 19.22044 01 05 33.86 +07 18 10.5 19.6   704 – Lincoln Laboratory ETS, New Mexico MPS 15246
1999 10 19.23425 01 05 32.93 +07 18 07.3 19.4   704 – Lincoln Laboratory ETS, New Mexico MPS 15246
1999 10 19.24804 01 05 32.05 +07 18 04.4 19.6   704 – Lincoln Laboratory ETS, New Mexico MPS 15246
1999 10 31.87222 00 55 12.28 +06 26 36.4   557 – Ondrejov MPS 7382
1999 10 31.89308 00 55 11.35 +06 26 32.5 19.3 V 557 – Ondrejov MPS 7382
1999 11 15.85431 00 48 44.11 +05 57 35.3 19.5 V 557 – Ondrejov MPS 7382
1999 11 15.88640 00 48 43.64 +05 57 35.6   557 – Ondrejov MPS 7382
2002 07 29.23015 21 38 52.65 -16 20 53.8 20.0   644 – Palomar Mountain/NEAT MPS 60830
2002 07 29.29321 21 38 49.41 -16 21 09.6 19.5   644 – Palomar Mountain/NEAT MPS 60830
2002 07 29.35646 21 38 46.01 -16 21 25.2 19.2   644 – Palomar Mountain/NEAT MPS 60830
2002 08 08.35173 21 29 30.56 -17 04 16.9 18.9   644 – Palomar Mountain/NEAT MPS 60830
2002 08 08.36344 21 29 29.83 -17 04 19.5 18.6   644 – Palomar Mountain/NEAT MPS 60830
2002 08 08.37386 21 29 29.17 -17 04 22.5 18.8   644 – Palomar Mountain/NEAT MPS 60830
2002 08 29.27768 21 09 28.57 -18 20 01.3 19.8   644 – Palomar Mountain/NEAT MPS 60830
2002 08 29.29878 21 09 27.47 -18 20 04.5 20.3   644 – Palomar Mountain/NEAT MPS 60830
2002 08 29.31969 21 09 26.46 -18 20 06.9 20.2   644 – Palomar Mountain/NEAT MPS 60830
2002 09 06.86936 21 03 35.14 -18 35 37.8   557 – Ondrejov MPS 60830
2002 09 06.88368 21 03 34.66 -18 35 39.6   557 – Ondrejov MPS 60830
2002 09 06.89668 21 03 34.18 -18 35 41.7   557 – Ondrejov MPS 60830
2004 02 12.32000 09 53 32.93 +14 33 58.3 21.5 V 691 – Steward Observatory, Kitt Peak-Spacewatch MPS 98570
2004 02 12.35216 09 53 30.73 +14 34 09.1 21.4 V 691 – Steward Observatory, Kitt Peak-Spacewatch MPS 98570
2004 02 12.38015 09 53 28.86 +14 34 18.3 21.3 V 691 – Steward Observatory, Kitt Peak-Spacewatch MPS 98570
2006 10 22.44919 07 33 49.71 +23 07 46.0 21.2 V G96 – Mt. Lemmon Survey MPS 183857
2006 10 22.45641 07 33 50.18 +23 07 45.8 21.2 V G96 – Mt. Lemmon Survey MPS 183857
2006 10 22.46363 07 33 50.65 +23 07 44.7 21.1 V G96 – Mt. Lemmon Survey MPS 183857
2006 10 22.47064 07 33 51.08 +23 07 44.2 21.3 V G96 – Mt. Lemmon Survey MPS 183857
2006 11 15.35862 07 51 23.83 +22 45 02.0 21.6 V G96 – Mt. Lemmon Survey MPS 186717
2006 11 15.36700 07 51 23.97 +22 45 01.9 20.9 V G96 – Mt. Lemmon Survey MPS 186717
2006 11 15.37542 07 51 24.15 +22 45 02.3 20.6 V G96 – Mt. Lemmon Survey MPS 186717
2006 11 15.38381 07 51 24.30 +22 45 02.0 20.5 V G96 – Mt. Lemmon Survey MPS 186717
2006 12 22.27860 07 38 51.07 +23 43 58.8 20.0 V G96 – Mt. Lemmon Survey MPS 195227
2006 12 22.28420 07 38 50.74 +23 43 59.5 19.9 V G96 – Mt. Lemmon Survey MPS 195227
2006 12 22.28991 07 38 50.38 +23 44 00.7 20.0 V G96 – Mt. Lemmon Survey MPS 195227
2006 12 22.29558 07 38 49.95 +23 44 00.4 19.4 V G96 – Mt. Lemmon Survey MPS 195227
2007 01 10.15006 07 17 02.72 +24 32 01.7   691 – Steward Observatory, Kitt Peak-Spacewatch MPS 196216
2007 01 10.16739 07 17 01.41 +24 32 04.2   691 – Steward Observatory, Kitt Peak-Spacewatch MPS 196216
2007 01 10.18471 07 17 00.10 +24 32 06.5   691 – Steward Observatory, Kitt Peak-Spacewatch MPS 196216
2008 04 30.33955 15 26 57.22 -20 01 33.3 20.2 V G96 – Mt. Lemmon Survey MPS 248788
2008 04 30.34462 15 26 56.94 -20 01 32.2 20.0 V G96 – Mt. Lemmon Survey MPS 248788
2008 04 30.34961 15 26 56.65 -20 01 31.6 20.1 V G96 – Mt. Lemmon Survey MPS 248788
2008 04 30.35455 15 26 56.32 -20 01 30.8 20.5 V G96 – Mt. Lemmon Survey MPS 248788
2008 05 26.17065 14 59 31.64 -18 27 45.0 21.4 V 691 – Steward Observatory, Kitt Peak-Spacewatch MPS 250853
2008 05 26.18571 14 59 30.78 -18 27 42.1 21.5 V 691 – Steward Observatory, Kitt Peak-Spacewatch MPS 250853
2008 05 26.20076 14 59 29.87 -18 27 39.8 21.0 V 691 – Steward Observatory, Kitt Peak-Spacewatch MPS 250853
2009 09 21.44985 04 15 27.25 +21 59 25.9 20.8 V G96 – Mt. Lemmon Survey MPS 296654
2009 09 21.45836 04 15 27.57 +21 59 27.7 20.6 V G96 – Mt. Lemmon Survey MPS 296654
2009 09 21.46690 04 15 27.97 +21 59 28.9 21.1 V G96 – Mt. Lemmon Survey MPS 296654
2009 09 21.47543 04 15 28.33 +21 59 30.2 20.6 V G96 – Mt. Lemmon Survey MPS 296654
2009 10 27.41756 04 18 22.69 +22 46 23.5   691 – Steward Observatory, Kitt Peak-Spacewatch MPS 301758
2009 10 27.43476 04 18 21.96 +22 46 23.1   691 – Steward Observatory, Kitt Peak-Spacewatch MPS 301758
2009 10 27.45196 04 18 21.21 +22 46 22.6   691 – Steward Observatory, Kitt Peak-Spacewatch MPS 301758
2009 11 08.26124 04 08 35.23 +22 34 24.0 19.7 V 691 – Steward Observatory, Kitt Peak-Spacewatch MPS 302993
2009 11 08.27842 04 08 34.15 +22 34 22.1 19.7 V 691 – Steward Observatory, Kitt Peak-Spacewatch MPS 302993
2009 11 08.29560 04 08 33.07 +22 34 20.4 19.9 V 691 – Steward Observatory, Kitt Peak-Spacewatch MPS 302993
2009 11 09.95084 04 06 52.09 +22 31 25.7 19.5 V J75 – OAM Observatory, La Sagra MPS 302993
2009 11 09.96400 04 06 51.20 +22 31 25.5 19.2 V J75 – OAM Observatory, La Sagra MPS 302993
2009 11 09.97714 04 06 50.35 +22 31 23.7 19.1 V J75 – OAM Observatory, La Sagra MPS 302993
2009 11 15.00248 04 01 23.76 +22 20 58.5 19.5 V J75 – OAM Observatory, La Sagra MPS 304489
2009 11 15.01550 04 01 22.80 +22 20 56.2 19.4 V J75 – OAM Observatory, La Sagra MPS 304489
2009 11 15.02841 04 01 21.94 +22 20 54.8 18.9 V J75 – OAM Observatory, La Sagra MPS 304489
2009 11 17.26087 03 58 50.42 +22 15 33.4 19.1   704 – Lincoln Laboratory ETS, New Mexico MPS 304489
2009 11 17.27332 03 58 49.55 +22 15 31.5 19.5   704 – Lincoln Laboratory ETS, New Mexico MPS 304489
2009 11 17.28566 03 58 48.68 +22 15 29.9 19.4   704 – Lincoln Laboratory ETS, New Mexico MPS 304489
2009 11 17.29803 03 58 47.75 +22 15 26.9 19.4   704 – Lincoln Laboratory ETS, New Mexico MPS 304489
2009 11 17.31041 03 58 46.86 +22 15 26.5 19.2   704 – Lincoln Laboratory ETS, New Mexico MPS 304489
2009 11 20.14658 03 55 31.70 +22 08 01.0 19.4 V 691 – Steward Observatory, Kitt Peak-Spacewatch MPS 304489
